Weather History for West Palm Beach, FL

Change the Weather History Date:

Thursday, October 20, 2011

  Actual Average Record
Temperature  
Mean Temperature 68 °F 78 °F  
Max Temperature 76 °F 84 °F 91 °F (1980)
Min Temperature 59 °F 71 °F 49 °F (1927)
Degree Days  
Heating Degree Days 0 0  
Month to date heating degree days 0 0  
Since 1 July heating degree days 0 0  
Cooling Degree Days 3 13  
Month to date cooling degree days 291 286  
Year to date cooling degree days 4183 3494  
Growing Degree Days 18 (Base 50)    
Moisture  
Dew Point 56 °F    
Average Humidity 68    
Maximum Humidity 90    
Minimum Humidity 46    
Precipitation  
Precipitation 0.00 in 0.15 in 5.15 in (1959)
Month to date precipitation 3.54 3.48  
Year to date precipitation 39.31 52.55  
Snow  
Snow 0.00 in - - ()
Month to date snowfall 0.0  
Since 1 July snowfall 0.0  
Since 1 September snowfall 0.0  
Snow Depth 0.00 in    
Sea Level Pressure  
Sea Level Pressure 29.99 in    
Wind  
Wind Speed 5 mph (NW)    
Max Wind Speed 18 mph    
Max Gust Speed 23 mph    
Visibility 10 miles    
Events      
T = Trace of Precipitation, MM = Missing Value Source: NWS Daily Summary

Daily Weather History Graph

Daily Weather History Graph

Search for Another Location

Airport:

Trip Planner

Search our weather history database for the weather conditions in past years. The results will help you decide how hot, cold, wet, or windy it might be!

Date:

Astronomy

Oct. 20, 2011 Rise Set
Actual Time 7:22 AM EDT 6:47 PM EDT
Civil Twilight 6:58 AM EDT 7:11 PM EDT
Nautical Twilight 6:31 AM EDT 7:38 PM EDT
Astronomical Twilight 6:04 AM EDT 8:05 PM EDT
Moon 12:45 AM EDT (10/20) 2:19 PM EDT (10/20)
Length of Visible Light 12h 12m
Length of Day
11h 25m
Last Quarter, 44% of the Moon is Illuminated
Oct 20
Last Quarter
Oct 26
New
Nov 2
First Quarter
Nov 10
Full
Nov 18
Last Quarter

Hourly Weather History & Observations

Time (EDT) Temp. Dew Point Humidity Pressure Visibility Wind Dir Wind Speed Gust Speed Precip Events Conditions
12:53 AM 66.9 °F 57.0 °F 70% 29.91 in 10.0 mi WNW 13.8 mph 21.9 mph N/A   Scattered Clouds
1:53 AM 64.9 °F 57.0 °F 75% 29.91 in 10.0 mi WNW 5.8 mph - N/A   Scattered Clouds
2:53 AM 62.1 °F 57.9 °F 86% 29.91 in 10.0 mi NW 5.8 mph - N/A   Scattered Clouds
3:53 AM 62.1 °F 57.9 °F 86% 29.90 in 10.0 mi Calm Calm - N/A   Scattered Clouds
4:53 AM 63.0 °F 57.9 °F 84% 29.90 in 10.0 mi West 4.6 mph - N/A   Scattered Clouds
5:53 AM 61.0 °F 57.0 °F 87% 29.92 in 10.0 mi SSW 3.5 mph - N/A   Scattered Clouds
6:53 AM 62.1 °F 57.0 °F 84% 29.94 in 10.0 mi Calm Calm - N/A   Mostly Cloudy
7:53 AM 63.0 °F 59.0 °F 87% 29.98 in 10.0 mi Calm Calm - N/A   Mostly Cloudy
8:53 AM 66.9 °F 60.1 °F 79% 30.00 in 10.0 mi Calm Calm - N/A   Mostly Cloudy
9:53 AM 69.1 °F 57.0 °F 65% 30.03 in 10.0 mi North 13.8 mph - N/A   Scattered Clouds
10:53 AM 71.1 °F 57.0 °F 61% 30.04 in 10.0 mi NNW 9.2 mph - N/A   Scattered Clouds
11:53 AM 73.0 °F 55.0 °F 53% 30.04 in 10.0 mi North 6.9 mph - N/A   Scattered Clouds
12:53 PM 75.0 °F 55.0 °F 50% 30.03 in 10.0 mi NNW 10.4 mph - N/A   Scattered Clouds
1:53 PM 75.0 °F 55.0 °F 50% 30.01 in 10.0 mi West 4.6 mph - N/A   Scattered Clouds
2:53 PM 75.0 °F 54.0 °F 48% 29.99 in 10.0 mi NNW 8.1 mph 17.3 mph N/A   Scattered Clouds
3:53 PM 75.0 °F 57.0 °F 53% 29.99 in 10.0 mi North 5.8 mph - N/A   Mostly Cloudy
4:53 PM 72.0 °F 55.9 °F 57% 29.99 in 10.0 mi NE 9.2 mph - N/A   Mostly Cloudy
5:53 PM 72.0 °F 55.0 °F 55% 30.01 in 10.0 mi North 6.9 mph - N/A   Mostly Cloudy
6:53 PM 70.0 °F 55.0 °F 59% 30.03 in 10.0 mi North 6.9 mph - N/A   Mostly Cloudy
7:53 PM 68.0 °F 55.9 °F 65% 30.04 in 10.0 mi NNW 4.6 mph - N/A   Scattered Clouds
8:53 PM 66.9 °F 55.9 °F 68% 30.05 in 10.0 mi Calm Calm - N/A   Scattered Clouds
9:53 PM 64.0 °F 55.9 °F 75% 30.06 in 10.0 mi NNW 4.6 mph - N/A   Partly Cloudy
10:53 PM 63.0 °F 55.9 °F 78% 30.08 in 10.0 mi NW 4.6 mph - N/A   Partly Cloudy
11:53 PM 63.0 °F 55.0 °F 75% 30.09 in 10.0 mi WNW 3.5 mph - N/A   Partly Cloudy